Weather in Bolxov

Russia / Oryol Oblast     53°26′35″N   36°00′18″E
temp.,
°C
wind,
m/s
gust,
m/s
humid.,
%
clouds,
%
prec.,
mm/h
press.,
hPa
HPBL,
m
4 july, mon
mon400:00+18nnw36819 0.0 101673
03:00+16nnw358585 0.0 101674
06:00+18nw348399 0.0 101679
09:00+23n2366100 0.0 1016366
12:00+26nne235446 0.0 1016965
15:00+28nne344794 0.0 10151819
18:00+27nne34605 0.0 1014523
21:00+19ssw34874 0.2 101549
5 july, tue
tue500:00+17wnw35945 0.4 101671
03:00+18nnw228840 0.4 101626
06:00+18wsw229013 0.0 101652
09:00+23w11735 0.0 1017338
12:00+26ssw2256100 0.0 1016971
15:00+27s235580 0.0 10161174
18:00+27s235918 0.0 10151114
21:00+21sw33765 0.0 101630
6 july, wed
wed600:00+19w228396 0.0 101611
03:00+17sw22916 0.8 101611
06:00+19ssw2288100 0.2 101651
09:00+23ssw23717 0.2 1015361
12:00+27ssw455584 0.0 10151377
15:00+28ssw565067 0.0 10141913
18:00+26sw476327 0.0 1012421
21:00+21sse497811 0.0 1012164
7 july, thu
thu700:00+21sw3975100 0.2 1013258
03:00+18sw349188 0.2 101357
06:00+18nnw249549 0.4 1014154
09:00+19nw228998 0.4 1015456
12:00+21nnw228083 0.4 1015645
15:00+25ssw116642 1.1 10151072
18:00+24w1272100 2.6 1014718
21:00+19ese119698 10.8 101514
8 july, fri
fri800:00+18w2295100 0.3 101634
03:00+18ene119897 2.8 101628
06:00+18se119694 0.0 101683
09:00+21ssw2282100 0.0 1016417
12:00+23s2371100 0.0 1016696
15:00+23ssw2479100 0.3 1016323
18:00+23nw227551 0.1 1015446
21:00+19nw3492100 0.6 101666